User: anonymous   Login
Location: Unspecified
(0.0000°N, 0.0000°E)
Time: 05:24:27
(UTC+00:00)
Language:

NNS O-27 - Orbit

View from above orbital plane
View from above orbital plane
View from above satellite
View from above satellite

Ground track
Ground track

The orbit data is extracted from the following two-line orbital elements,

1 18361U 87080A   17324.94519121 +.00000034 +00000-0 +42560-4 0  9999
2 18361 090.3249 340.6896 0105038 013.0130 347.3689 13.44443707479983
Epoch (UTC): 20 November 2017 22:41:04
Eccentricity: 0.0105038
inclination: 90.3249°
perigee height: 1014 km
apogee height: 1171 km
right ascension of ascending node: 340.6896°
argument of perigee: 13.0130°
revolutions per day: 13.44443707
mean anomaly at epoch: 347.3689°
orbit number at epoch: 47998

The dashed part of the orbit path shows where the satellite is in the earth's shadow,  

DLR